sat.trackr.live / text

‹ back to catalog

STARLINK-4150

NORAD 53134 · 2022-083C

PAYLOAD ACTIVE UNKNOWN

§ Identity

Operator
Country
US
Launch date
2022-07-17
Launch site
AFETR
Launch vehicle
Mass (kg)
RCS (m²)

Purposes: comms

External: N2YO · Heavens-Above · Gunter

§ Orbital elements

Epoch: 2026-05-25T02:46:37.606656Z

Period
95.44 min
Inclination
53.2121°
Eccentricity
0.0001667
Mean motion
15.08844114 rev/d
Perigee alt
538.6 km
Apogee alt
540.9 km
Semi-major
6,917.9 km
B*
-6.5116e-5
RAAN
191.0307°
Arg perigee
66.5216°
Mean anomaly
293.5951°
Rev number
21,275

§ Raw data

STARLINK-41501 53134U 22083C   26145.11571304 -.00001324  00000+0 -65116-4 0  99952 53134  53.2121 191.0307 0001667  66.5216 293.5951 15.08844114212756

JSON: /api/v1/satellites/53134 · /tle

For live sub-satellite position, see the globe view (requires WebGL).

§ Visibility from observer

Set your observer location to see the next 7 days of passes ≥ 10°. The values pass through the URL so the page stays shareable.

No JS? Fill the form by hand. The geolocation button needs JavaScript.